This demonstration page uses our WeatherBlox Daily Observations layout. Learn more.

41.55636, -103.73856

Hourly Observations for January 30, 2020

Temp ( °F °C ) Dew Point ( °F °C ) Humidity (%) Winds ( mph kmh ) Pressure ( in mb ) Visibility ( mi km ) Precip ( " mm )
12:58 am 00:58 Mostly Cloudy 33 0.5 32 0.1 97 97 WNW 8 13 30.14 1021 10 16.0934 0 0
1:58 am 01:58 Mostly Cloudy 31 -0.3 31 -0.6 98 98 W 5 7 30.14 1021 10 16.0934 0 0
2:58 am 02:58 Mostly Cloudy 30 -1.2 29 -1.6 97 97 W 5 7 30.14 1021 10 16.0934 0 0
3:58 am 03:58 Mostly Cloudy 29 -1.8 28 -2.5 95 95 WSW 5 7 30.14 1021 10 16.0934 0 0
4:58 am 04:58 Mostly Clear 29 -1.5 28 -2.5 93 93 SW 3 6 30.11 1020 10 16.0934 0 0
5:58 am 05:58 Clear 27 -2.7 24 -4.5 88 88 WSW 5 7 30.11 1020 10 16.0934 0 0
6:58 am 06:58 Mostly Cloudy 28 -2.1 25 -3.8 88 88 SW 6 9 30.08 1019 10 16.0934 0 0
7:58 am 07:58 Mostly Cloudy 29 -1.9 25 -3.8 87 87 SW 3 6 30.06 1018 10 16.0934 0 0
8:58 am 08:58 Mostly Clear 29 -1.6 24 -4.5 81 81 W 6 9 30.04 1017 10 16.0934 0 0
9:58 am 09:58 Clear 25 -3.8 21 -5.9 86 86 SW 9 15 30.02 1017 10 16.0934 0 0
10:58 am 10:58 Clear 26 -3.2 21 -6.2 80 80 Calm 30 1016 10 16.0934 0 0
11:58 am 11:58 Clear 25 -4 18 -7.8 75 75 WSW 7 11 30.01 1016 10 16.0934 0 0
12:58 pm 12:58 Clear 19 -7 16 -9 86 86 SW 10 17 30.03 1017 10 16.0934 0 0
1:58 pm 13:58 Mostly Clear 22 -5.5 17 -8.3 81 81 W 13 20 30.03 1017 10 16.0934 0 0
2:58 pm 14:58 Sunny 24 -4.3 19 -7 82 82 W 9 15 30.04 1017 10 16.0934 0 0
3:58 pm 15:58 Sunny 31 -0.8 25 -3.9 80 80 WNW 10 17 30.01 1016 10 16.0934 0 0
4:58 pm 16:58 Sunny 33 0.6 25 -4 72 72 WNW 14 22 30 1016 10 16.0934 0 0
5:58 pm 17:58 Mostly Sunny 36 2 26 -3.3 68 68 NW 22 35 30.04 1017 10 16.0934 0 0
6:58 pm 18:58 Mostly Cloudy 37 2.9 23 -5 56 56 NW 26 43 30.04 1017 10 16.0934 0 0
7:58 pm 19:58 Cloudy with Light Rain 35 1.7 29 -1.7 78 78 NW 24 39 30.05 1018 10 16.0934 0 0
8:58 pm 20:58 Mostly Cloudy with Scattered Snow Showers 32 0 31 -0.5 96 96 NNW 24 39 30.07 1018 1.25 2.011675 0 0
9:58 pm 21:58 Mostly Cloudy with Scattered Snow Showers 33 0.7 32 0 95 95 NW 18 30 30.09 1019 10 16.0934 0 0
10:58 pm 22:58 Mostly Cloudy 34 1.3 30 -1.3 83 83 NW 20 31 30.11 1020 10 16.0934 0 0
11:58 pm 23:58 Mostly Cloudy 33 0.7 26 -3.3 75 75 NW 31 50 30.16 1021 10 16.0934 0 0

Powered by AerisWeather